New Orleans Lakefront, LA

6:48 AM CST on December 12, 2017 (GMT -0600)
Lakefront

Weather History for KNEW - April, 2013

Change the Weather History Date:

Wednesday, April 10, 2013

  Actual Average Record
Temperature  
Mean Temperature 78 °F 68 °F  
Max Temperature 83 °F 77 °F 88 °F (1963)
Min Temperature 72 °F 58 °F 39 °F (1973)
Degree Days  
Heating Degree Days 0 2  
Month to date heating degree days 22 20  
Since 1 July heating degree days 1120 1265  
Cooling Degree Days 13 4  
Month to date cooling degree days 37 37  
Year to date cooling degree days 105 137  
Growing Degree Days 28 (Base 50)    
Moisture  
Dew Point 69 °F    
Average Humidity 78    
Maximum Humidity 90    
Minimum Humidity 65    
Precipitation  
Precipitation 0.00 in 0.15 in 1.73 in (1969)
Month to date precipitation 1.94 1.49  
Year to date precipitation 16.82 16.49  
Snow  
Snow 0.00 in - - ()
Month to date snowfall 0.0  
Since 1 July snowfall 0.0  
Snow Depth 0.00 in    
Sea Level Pressure  
Sea Level Pressure 29.90 in    
Wind  
Wind Speed 16 mph (SSE)    
Max Wind Speed 25 mph    
Max Gust Speed 35 mph    
Visibility 10 miles    
Events      
T = Trace of Precipitation, MM = Missing Value Source: NWS Daily Summary

Daily Weather History Graph

Daily Weather History Graph

Search for Another Location

Airport or City:

Trip Planner

Search our weather history database for the weather conditions in past years. The results will help you decide how hot, cold, wet, or windy it might be!

Date:

Astronomy

Apr. 10, 2013 Rise Set
Actual Time 6:38 AM CDT 7:24 PM CDT
Civil Twilight 6:14 AM CDT 7:48 PM CDT
Nautical Twilight 5:45 AM CDT 8:17 PM CDT
Astronomical Twilight 5:16 AM CDT 8:47 PM CDT
Moon 6:37 AM CDT (4/10) 7:55 PM CDT (4/10)
Length of Visible Light 13h 34m
Length of Day
12h 45m
New Moon, 0% of the Moon is Illuminated
Apr 10
New Moon
Apr 18
First Quarter
Apr 25
Full
May 2
Last Quarter
May 9
New

Hourly Weather History & Observations

Time (CDT) Temp. Heat Index Dew Point Humidity Pressure Visibility Wind Dir Wind Speed Gust Speed Precip Events Conditions
12:53 AM 75.0 °F - 69.1 °F 82% 29.96 in 10.0 mi SSE 16.1 mph 27.6 mph N/A   Overcast
1:53 AM 73.9 °F - 68.0 °F 82% 29.93 in 10.0 mi SSE 19.6 mph 26.5 mph N/A   Overcast
2:53 AM 73.9 °F - 68.0 °F 82% 29.91 in 10.0 mi SSE 19.6 mph 26.5 mph N/A   Overcast
3:53 AM 73.0 °F - 68.0 °F 84% 29.91 in 10.0 mi SSE 12.7 mph 21.9 mph N/A   Overcast
4:41 AM 73.4 °F - 68.0 °F 83% 29.93 in 10.0 mi SSE 13.8 mph - N/A   Scattered Clouds
4:53 AM 73.0 °F - 68.0 °F 84% 29.90 in 10.0 mi SSE 12.7 mph - N/A   Scattered Clouds
5:53 AM 72.0 °F - 68.0 °F 87% 29.88 in 9.0 mi SE 15.0 mph - N/A   Partly Cloudy
6:21 AM 71.6 °F - 68.0 °F 88% 29.90 in 9.0 mi SE 15.0 mph - N/A   Partly Cloudy
6:53 AM 72.0 °F - 68.0 °F 87% 29.90 in 8.0 mi SE 13.8 mph - N/A   Scattered Clouds
7:13 AM 73.4 °F - 68.0 °F 83% 29.93 in 9.0 mi SSE 13.8 mph - N/A   Mostly Cloudy
7:53 AM 73.9 °F - 68.0 °F 82% 29.93 in 9.0 mi SSE 18.4 mph - N/A   Overcast
8:53 AM 75.0 °F - 68.0 °F 79% 29.92 in 10.0 mi SSE 23.0 mph 28.8 mph N/A   Mostly Cloudy
9:40 AM 78.8 °F - 69.8 °F 74% 29.94 in 10.0 mi SSE 21.9 mph 31.1 mph N/A   Scattered Clouds
9:53 AM 78.1 °F - 69.1 °F 74% 29.92 in 10.0 mi SSE 28.8 mph 35.7 mph N/A   Mostly Cloudy
10:53 AM 80.1 °F 82.9 °F 69.1 °F 69% 29.95 in 10.0 mi SSE 20.7 mph 28.8 mph N/A   Mostly Cloudy
11:53 AM 80.6 °F 83.9 °F 69.8 °F 70% 29.95 in 10.0 mi SSE 24.2 mph 31.1 mph N/A   Scattered Clouds
12:16 PM 82.4 °F 85.4 °F 68.0 °F 62% 29.95 in 10.0 mi SSE 26.5 mph 36.8 mph N/A   Mostly Cloudy
12:53 PM 81.0 °F 84.1 °F 69.1 °F 67% 29.93 in 10.0 mi SSE 21.9 mph 29.9 mph N/A   Mostly Cloudy
1:29 PM 82.4 °F 86.3 °F 69.8 °F 66% 29.94 in 10.0 mi SSE 25.3 mph 33.4 mph N/A   Scattered Clouds
1:53 PM 82.9 °F 86.5 °F 69.1 °F 63% 29.91 in 10.0 mi SSE 20.7 mph 27.6 mph N/A   Mostly Cloudy
2:24 PM 84.2 °F 88.4 °F 69.8 °F 62% 29.92 in 10.0 mi South 19.6 mph 26.5 mph N/A   Scattered Clouds
2:34 PM 84.2 °F 88.4 °F 69.8 °F 62% 29.92 in 10.0 mi SSE 16.1 mph - N/A   Mostly Cloudy
2:53 PM 84.0 °F 88.4 °F 70.0 °F 63% 29.89 in 10.0 mi SSE 17.3 mph - N/A   Mostly Cloudy
3:53 PM 82.0 °F 85.5 °F 69.1 °F 65% 29.87 in 10.0 mi SE 17.3 mph 24.2 mph N/A   Scattered Clouds
4:27 PM 80.6 °F 83.9 °F 69.8 °F 70% 29.88 in 10.0 mi SE 16.1 mph 23.0 mph N/A   Mostly Cloudy
4:53 PM 81.0 °F 83.8 °F 68.0 °F 65% 29.86 in 10.0 mi SE 18.4 mph 23.0 mph N/A   Mostly Cloudy
5:53 PM 79.0 °F - 68.0 °F 69% 29.86 in 10.0 mi SE 16.1 mph - N/A   Overcast
6:01 PM 78.8 °F - 68.0 °F 69% 29.88 in 10.0 mi SE 15.0 mph - N/A   Overcast
6:25 PM 78.8 °F - 69.8 °F 74% 29.88 in 10.0 mi SE 16.1 mph - N/A   Mostly Cloudy
6:53 PM 77.0 °F - 69.1 °F 76% 29.86 in 10.0 mi SE 16.1 mph 21.9 mph N/A   Overcast
7:53 PM 75.9 °F - 69.1 °F 79% 29.85 in 10.0 mi SE 15.0 mph - N/A   Overcast
8:53 PM 75.9 °F - 69.1 °F 79% 29.86 in 10.0 mi SSE 10.4 mph - N/A   Overcast
9:53 PM 75.9 °F - 69.1 °F 79% 29.86 in 10.0 mi SE 11.5 mph - N/A   Overcast
10:30 PM 75.2 °F - 69.8 °F 83% 29.86 in 10.0 mi SE 13.8 mph - N/A   Overcast
10:53 PM 75.0 °F - 69.1 °F 82% 29.84 in 9.0 mi SE 12.7 mph - N/A   Overcast
11:53 PM 75.9 °F - 70.0 °F 82% 29.82 in 10.0 mi SSE 15.0 mph - N/A   Overcast